Location: Berduj
(43.0019°N, 22.3781°E)
Time: 15:36:07
(UTC+00:00)

Cosmos 44 - Pass Details

Date: 19 October 2019
Orbit: 593 x 769 km, 65.1° (Epoch: 17 November)

Event Time Altitude Azimuth Distance (km) Brightness Sun altitude
Rises 17:49:02 0° 204° (SSW) 3,125 6.9 -23.9°
Reaches altitude 10° 17:51:27 10° 202° (SSW) 2,181 6.0 -24.3°
Enters shadow 17:55:03 46° 183° (S) 932 3.8 -25.0°
